Location: Vancouver
(49.2500°N, 123.1330°W)
Time: 09:08:57
(UTC-07:00)

Iridium 21 - Visible Passes

Search period start: 01 September 2015 00:00
Search period end: 11 September 2015 00:00
Orbit: 776 x 779 km, 86.4° (Epoch: 31 August)

Date Brightness Start Highest point End Pass type
(mag) Time Alt. Az. Time Alt. Az. Time Alt. Az.
01 Sep 6.5 00:02:05 10° NNW 00:06:40 41° WNW 00:06:40 41° WNW visible
01 Sep 7.1 21:48:41 10° NNE 21:52:09 18° ENE 21:52:46 18° ENE visible
01 Sep 5.7 23:28:21 10° N 23:33:14 69° WNW 23:33:14 69° WNW visible
02 Sep 8.1 01:12:07 10° WNW 01:13:26 11° WNW 01:13:42 11° WNW visible
02 Sep 7.6 21:17:00 10° NE 21:18:05 11° ENE 21:19:19 10° ENE visible
02 Sep 5.5 22:54:47 10° N 22:59:47 67° ENE 22:59:47 67° ENE visible
03 Sep 7.6 00:36:39 10° NW 00:40:15 19° WNW 00:40:15 19° WNW visible
03 Sep 6.1 22:21:26 10° N 22:26:20 40° ENE 22:26:22 40° E visible
04 Sep 6.9 00:02:25 10° NNW 00:06:50 31° W 00:06:50 31° W visible
04 Sep 6.7 21:48:19 10° NNE 21:52:30 24° ENE 21:52:55 24° E visible
04 Sep 6.1 23:28:32 10° NNW 23:33:24 51° W 23:33:24 51° W visible
05 Sep 7.3 21:15:42 10° NNE 21:18:31 15° ENE 21:19:31 14° E visible
05 Sep 5.4 22:54:52 10° N 22:59:59 85° NNW 22:59:59 85° NNW visible
06 Sep 7.9 00:37:34 10° NW 00:40:08 13° WNW 00:40:27 13° WNW visible
06 Sep 5.6 22:21:24 10° N 22:26:32 55° E 22:26:35 55° E visible
07 Sep 7.4 00:02:52 10° NNW 00:06:55 23° W 00:07:03 23° W visible
07 Sep 6.3 21:48:07 10° NNE 21:52:47 33° ENE 21:53:10 32° E visible
07 Sep 6.6 23:28:48 10° NNW 23:33:37 37° W 23:33:39 37° W visible
08 Sep 6.9 21:15:09 10° NNE 21:18:54 20° ENE 21:19:47 19° E visible
08 Sep 5.7 22:55:01 10° N 23:00:11 64° W 23:00:15 64° W visible
09 Sep 7.4 20:42:57 10° NE 20:44:50 12° ENE 20:46:24 11° E visible
09 Sep 5.4 22:21:25 10° N 22:26:41 76° E 22:26:52 75° ESE visible
10 Sep 7.8 00:03:31 10° NW 00:06:50 17° WNW 00:07:20 16° W visible
10 Sep 5.8 21:48:00 10° N 21:53:01 44° E 21:53:29 43° E visible
10 Sep 7.1 23:29:09 10° NNW 23:33:34 28° W 23:33:58 27° W visible
